Date_and_time,latitude,longitude,wind_speed,RelWindDirFrom,WindDirFrom,air_pressure,air_temperature,relative_humidity,Temp,platform_speed_wrt_ground,air_pressure_at_mean_sea_level,platform_orientation
2019-07-17 23:40,50.6304433333333,-96.980775,2.9,3.8,117,977.15,22.8,85,23.54,0.0,1002.68,0.0
2019-07-17 23:50,50.6304483333333,-96.98077,2.9,4.4,104,977.06,23.0,83,23.56,0.0,1002.58,0.0
2019-07-18 00:00,50.63045,-96.98077,3.5,5.0,102,976.85,23.2,81,23.42,0.0,1002.35,270.0
2019-07-18 00:10,50.6304483333333,-96.9807666666667,4.8,6.6,106,976.69,23.2,82,23.20,0.0,1002.18,270.0
2019-07-18 00:20,50.6304483333333,-96.9807666666667,5.3,7.1,114,976.63,22.2,87,23.28,0.0,1002.15,270.0
2019-07-18 00:30,50.6304566666667,-96.9807883333333,6.4,8.0,117,976.57,21.8,89,23.35,0.0,1002.07,270.0
2019-07-18 00:40,50.6304783333333,-96.9807683333333,6.3,8.1,119,976.49,21.6,91,23.34,0.0,1001.97,270.0
2019-07-18 00:50,50.6304666666667,-96.98075,6.8,9.6,133,976.34,21.5,90,23.14,0.0,1001.83,270.0
2019-07-18 01:00,50.6304566666667,-96.98076,7.6,9.5,136,976.20,21.5,89,23.18,0.0,1001.67,90.0
2019-07-18 01:10,50.6304583333333,-96.9807633333333,7.0,8.9,148,976.14,21.1,86,23.24,0.0,1001.61,90.0
2019-07-18 01:20,50.6304416666667,-96.98075,7.6,9.5,158,976.10,21.0,85,23.39,0.0,1001.56,90.0
2019-07-18 01:30,50.6304466666667,-96.980755,7.3,8.8,173,976.10,21.0,87,23.47,0.0,1001.57,90.0
2019-07-18 01:40,50.6304466666667,-96.9807583333333,7.7,8.9,172,976.00,21.1,87,23.40,0.0,1001.45,90.0
2019-07-18 01:50,50.6304716666667,-96.9807733333333,7.8,9.3,172,975.90,21.1,86,23.39,0.0,1001.34,90.0
2019-07-18 02:00,50.6304616666667,-96.9807733333333,7.2,9.0,179,975.85,20.9,88,23.42,0.0,1001.30,360.0
2019-07-18 02:10,50.63046,-96.9807683333333,7.0,8.3,177,975.78,20.7,91,23.42,0.0,1001.27,360.0
2019-07-18 02:20,50.6304433333333,-96.9807733333333,7.0,9.4,177,975.76,20.6,94,23.41,0.0,1001.28,360.0
2019-07-18 02:30,50.6304483333333,-96.9807733333333,7.2,9.2,175,975.67,20.5,95,23.39,0.0,1001.19,360.0
2019-07-18 02:40,50.630445,-96.980775,6.8,8.4,174,975.66,20.4,98,23.39,0.0,1001.20,360.0
2019-07-18 02:50,50.63045,-96.9807716666667,7.7,9.3,169,975.61,20.4,99,23.38,0.0,1001.14,360.0
2019-07-18 03:00,50.6304616666667,-96.9807733333333,7.6,8.8,171,975.56,20.4,98,23.37,0.0,1001.12,345.5
2019-07-18 03:10,50.6304483333333,-96.980785,7.9,10.1,171,975.49,20.3,98,23.36,0.0,1001.05,345.5
2019-07-18 03:20,50.630455,-96.9807683333333,9.4,11.7,170,975.42,20.3,98,23.35,0.0,1000.98,345.5
2019-07-18 03:30,50.6304566666667,-96.980765,9.1,11.1,175,975.50,20.2,99,23.35,0.0,1001.06,345.5
2019-07-18 03:40,50.6304566666667,-96.980765,7.8,9.5,178,975.57,19.9,100,23.34,0.0,1001.15,345.5
2019-07-18 03:50,50.630445,-96.98077,9.7,12.4,178,975.50,19.7,100,23.33,0.0,1001.09,345.5
2019-07-18 04:00,50.6304466666667,-96.9807666666667,11.1,13.6,176,975.23,19.6,100,23.32,0.0,1000.82,228.3
2019-07-18 04:10,50.6304483333333,-96.9807633333333,11.8,14.3,176,974.89,19.5,100,23.31,0.0,1000.49,228.3
2019-07-18 04:20,50.6304516666667,-96.98076,11.4,13.4,176,974.73,19.4,100,23.29,0.0,1000.33,228.3
2019-07-18 04:30,50.630445,-96.980755,11.3,13.8,175,974.54,19.4,100,23.28,0.0,1000.14,228.3
2019-07-18 04:40,50.63044,-96.9807483333333,12.2,14.6,179,974.48,19.4,100,23.26,0.0,1000.08,228.3
2019-07-18 04:50,50.630415,-96.9807733333333,9.9,13.7,182,974.66,19.4,100,23.24,0.0,1000.27,228.3
2019-07-18 05:00,50.63045,-96.9807666666667,8.3,10.7,187,974.72,19.5,100,23.22,0.0,1000.33,165.5
2019-07-18 05:10,50.6304533333333,-96.9807633333333,8.3,11.6,195,974.81,19.4,100,23.20,0.0,1000.42,165.5
2019-07-18 05:20,50.6304516666667,-96.9807583333333,6.8,10.1,204,974.75,19.4,100,23.18,0.0,1000.37,165.5
2019-07-18 05:30,50.6304516666667,-96.9807583333333,8.4,11.9,202,974.61,19.3,100,23.17,0.0,1000.24,165.5
2019-07-18 05:40,50.6304533333333,-96.9807633333333,7.5,9.8,207,974.46,19.2,100,23.16,0.0,1000.10,165.5
2019-07-18 05:50,50.630455,-96.980765,7.2,9.9,206,974.46,19.2,100,23.15,0.0,1000.10,165.5
2019-07-18 06:00,50.6304566666667,-96.9807633333333,7.2,9.0,204,974.44,19.1,100,23.14,0.0,1000.09,360.0
2019-07-18 06:10,50.6304566666667,-96.980765,6.5,9.4,208,974.30,19.0,100,23.14,0.0,999.96,360.0
2019-07-18 06:20,50.6304566666667,-96.9807633333333,6.9,11.0,209,974.20,18.9,100,23.11,0.0,999.86,360.0
2019-07-18 06:30,50.6304583333333,-96.9807616666667,8.4,11.0,204,974.15,18.8,100,23.11,0.0,999.81,360.0
2019-07-18 06:40,50.6304583333333,-96.9807616666667,6.9,9.0,210,974.08,18.6,100,23.10,0.0,999.75,360.0
2019-07-18 06:50,50.6304583333333,-96.9807616666667,7.1,9.5,208,973.93,18.6,100,23.09,0.0,999.59,360.0
2019-07-18 07:00,50.6304583333333,-96.9807616666667,7.2,9.5,209,973.90,18.7,100,23.08,0.0,999.56,14.5
2019-07-18 07:10,50.6304583333333,-96.9807616666667,7.9,10.3,209,973.79,18.9,100,23.07,0.0,999.44,14.5
2019-07-18 07:20,50.6304583333333,-96.9807616666667,7.9,10.0,209,973.70,18.9,100,23.06,0.0,999.35,14.5
2019-07-18 07:30,50.6304583333333,-96.9807616666667,8.6,11.3,211,973.67,19.0,99,23.05,0.0,999.31,14.5
2019-07-18 07:40,50.6304583333333,-96.9807616666667,7.4,10.7,213,973.59,19.1,98,23.04,0.0,999.23,14.5
2019-07-18 07:50,50.6304583333333,-96.98077,6.5,9.1,214,973.56,18.9,99,23.02,0.0,999.22,14.5
2019-07-18 08:00,50.6304566666667,-96.9807716666667,6.1,8.6,214,973.56,18.7,100,23.02,0.0,999.23,270.0
2019-07-18 08:10,50.6304566666667,-96.9807733333333,6.6,8.9,209,973.58,18.6,100,23.02,0.0,999.26,270.0
2019-07-18 08:20,50.6304566666667,-96.9807716666667,6.3,8.0,209,973.51,18.6,100,23.01,0.0,999.19,270.0
2019-07-18 08:30,50.630455,-96.9807683333333,6.2,7.8,203,973.40,18.4,100,22.98,0.0,999.09,270.0
2019-07-18 08:40,50.630455,-96.9807683333333,6.2,8.9,210,973.33,18.2,100,22.96,0.0,999.03,270.0
2019-07-18 08:50,50.6304666666667,-96.9807616666667,5.6,7.5,209,973.33,18.2,100,22.96,0.0,999.02,270.0
2019-07-18 09:00,50.63046,-96.9807616666667,5.4,7.0,210,973.32,18.0,100,22.98,0.0,999.01,12.6
2019-07-18 09:10,50.63046,-96.9807616666667,6.5,8.9,202,973.28,17.8,100,22.96,0.0,998.98,12.6
2019-07-18 09:20,50.6304616666667,-96.9807633333333,5.6,8.4,219,973.29,18.0,100,22.93,0.0,998.98,12.6
2019-07-18 09:30,50.6304283333333,-96.98076,5.1,6.9,215,973.31,18.0,100,22.92,0.0,998.99,12.6
2019-07-18 09:40,50.6304466666667,-96.9807433333333,4.9,6.9,219,973.31,17.9,100,22.91,0.0,999.01,12.6
2019-07-18 09:50,50.6304566666667,-96.9807516666667,4.9,6.6,217,973.34,17.7,100,22.90,0.0,999.06,12.6
2019-07-18 10:00,50.63047,-96.9807733333333,4.5,6.1,223,973.36,17.5,100,22.89,0.0,999.09,356.8
2019-07-18 10:10,50.63046,-96.98077,5.1,6.8,209,973.51,17.4,100,22.89,0.0,999.25,356.8
2019-07-18 10:20,50.63046,-96.9807666666667,5.2,7.0,215,973.60,17.3,100,22.88,0.0,999.36,356.8
2019-07-18 10:30,50.6304433333333,-96.98075,4.1,6.0,222,973.57,17.3,100,22.88,0.0,999.34,356.8
2019-07-18 10:40,50.630465,-96.9807616666667,4.2,5.7,232,973.52,17.2,100,22.87,0.0,999.29,356.8
2019-07-18 10:50,50.630465,-96.9807616666667,4.8,6.6,243,973.39,17.2,100,22.87,0.0,999.17,356.8
2019-07-18 11:00,50.630465,-96.9807616666667,4.1,6.2,262,973.32,17.5,100,22.87,0.0,999.08,3.2
2019-07-18 11:10,50.6304683333333,-96.9807883333333,4.3,6.2,229,973.36,17.3,100,22.86,0.0,999.13,3.2
2019-07-18 11:20,50.630465,-96.9807666666667,4.9,6.7,225,973.49,17.2,100,22.86,0.0,999.27,3.2
2019-07-18 11:30,50.6304633333333,-96.98077,4.2,6.3,232,973.60,17.3,100,22.87,0.0,999.38,3.2
2019-07-18 11:40,50.6304616666667,-96.98077,4.0,6.7,221,973.54,17.6,100,22.87,0.0,999.31,3.2
2019-07-18 11:50,50.6304616666667,-96.9807683333333,4.5,6.9,219,973.54,17.6,100,22.86,0.0,999.32,3.2
2019-07-18 12:00,50.63046,-96.9807666666667,4.6,6.1,216,973.59,17.7,99,22.84,0.0,999.38,270.0
2019-07-18 12:10,50.63046,-96.9807666666667,3.2,5.0,251,973.46,18.2,97,22.83,0.0,999.23,270.0
2019-07-18 12:20,50.6304583333333,-96.9807633333333,2.8,5.2,249,973.47,18.6,94,22.84,0.0,999.22,270.0
2019-07-18 12:30,50.6304583333333,-96.9807616666667,3.6,5.8,248,973.58,18.8,93,22.81,0.0,999.32,270.0
2019-07-18 12:40,50.6304566666667,-96.9807616666667,3.9,6.2,254,973.53,19.0,93,22.85,0.0,999.26,270.0
2019-07-18 12:50,50.6304683333333,-96.980755,4.6,7.3,242,973.52,19.2,92,22.84,0.0,999.23,270.0
2019-07-18 13:00,50.6304666666667,-96.98076,4.6,7.6,244,973.50,19.4,92,22.84,0.0,999.21,125.3
2019-07-18 13:10,50.6304616666667,-96.980755,4.5,7.6,243,973.49,19.8,89,22.83,0.0,999.19,125.3
2019-07-18 13:20,50.6304533333333,-96.9807633333333,6.5,9.7,244,973.53,20.1,86,22.83,0.0,999.21,125.3
2019-07-18 13:30,50.6304516666667,-96.980765,6.9,10.1,243,973.51,20.1,85,22.83,0.0,999.18,125.3
2019-07-18 13:40,50.6304416666667,-96.9807633333333,6.7,9.9,249,973.38,20.1,85,22.86,0.0,999.05,125.3
2019-07-18 13:50,50.630445,-96.9807583333333,5.8,8.8,243,973.37,20.2,84,22.89,0.0,999.02,125.3
2019-07-18 14:00,50.630445,-96.9807583333333,6.0,8.8,242,973.44,20.4,83,22.91,0.0,999.06,360.0
2019-07-18 14:10,50.6304466666667,-96.98076,5.6,8.9,262,973.40,20.7,81,22.91,0.0,998.99,360.0
2019-07-18 14:20,50.6304483333333,-96.9807616666667,5.4,9.4,274,973.35,20.9,80,22.92,0.0,998.92,360.0
2019-07-18 14:30,50.6304483333333,-96.98076,4.7,8.0,286,973.39,21.0,80,22.92,0.0,998.95,360.0
2019-07-18 14:40,50.6304483333333,-96.9807616666667,5.1,9.3,316,973.37,21.0,82,22.95,0.0,998.92,360.0
2019-07-18 14:50,50.6304416666667,-96.9807533333333,4.8,8.2,316,973.34,20.8,83,23.01,0.0,998.89,360.0
2019-07-18 15:00,50.6304616666667,-96.98077,4.1,7.5,293,973.32,21.0,80,23.04,0.0,998.85,360.0
2019-07-18 15:10,50.63045,-96.980775,4.8,8.1,280,973.17,21.1,79,23.03,0.0,998.67,360.0
2019-07-18 15:20,50.6304483333333,-96.9807666666667,4.8,7.7,290,973.17,21.4,78,23.08,0.0,998.66,360.0
2019-07-18 15:30,50.6304483333333,-96.980765,3.7,7.7,273,973.17,21.4,78,23.13,0.0,998.66,360.0
2019-07-18 15:40,50.63045,-96.980765,5.0,8.2,288,973.20,21.4,78,23.17,0.0,998.68,360.0
2019-07-18 15:50,50.63045,-96.9807633333333,3.5,6.8,257,973.20,21.3,79,23.08,0.0,998.68,360.0
2019-07-18 16:00,50.6304516666667,-96.980765,4.2,7.1,251,973.16,21.4,77,22.98,0.0,998.62,203.5
2019-07-18 16:10,50.63044,-96.9807633333333,3.4,6.1,238,973.09,21.6,75,22.92,0.0,998.53,203.5
2019-07-18 16:20,50.6304416666667,-96.980765,2.6,4.8,224,973.05,22.1,73,22.95,0.0,998.47,203.5
2019-07-18 16:30,50.63045,-96.9807483333333,2.7,6.3,186,973.00,22.4,73,23.09,0.0,998.41,203.5
2019-07-18 16:40,50.6304483333333,-96.9807783333333,5.8,7.8,199,973.07,21.9,74,22.98,0.0,998.51,203.5
2019-07-18 16:50,50.63045,-96.980775,5.9,9.6,198,973.13,22.1,72,22.90,0.0,998.54,203.5
2019-07-18 17:00,50.6304433333333,-96.9807583333333,6.0,9.8,202,973.17,22.3,71,22.88,0.0,998.57,0.0
2019-07-18 17:10,50.6304466666667,-96.980765,7.3,10.9,198,973.13,22.3,70,22.92,0.0,998.52,0.0
2019-07-18 17:20,50.630445,-96.9807633333333,4.8,7.5,216,973.10,22.5,69,22.98,0.0,998.48,0.0
2019-07-18 17:30,50.6304466666667,-96.9807633333333,6.2,9.1,220,973.11,22.8,66,23.06,0.0,998.48,0.0
2019-07-18 17:40,50.63045,-96.980765,7.6,11.5,222,973.20,23.2,64,23.25,0.0,998.55,0.0
2019-07-18 17:50,50.6304483333333,-96.9807666666667,6.9,11.5,244,973.18,23.4,63,23.14,0.0,998.52,0.0
2019-07-18 18:00,50.6304516666667,-96.9807833333333,6.2,11.5,246,973.14,23.8,60,23.05,0.0,998.46,229.4
2019-07-18 18:10,50.6304466666667,-96.980755,7.6,12.3,227,973.18,23.9,58,23.21,0.0,998.47,229.4
2019-07-18 18:20,50.6304483333333,-96.9807633333333,10.8,16.3,196,973.09,23.5,61,23.29,0.0,998.38,229.4
2019-07-18 18:30,50.63045,-96.9807616666667,10.2,16.3,185,972.94,22.3,69,23.27,0.0,998.31,229.4
2019-07-18 18:40,50.6304516666667,-96.980765,10.1,13.1,194,972.83,22.5,67,23.39,0.0,998.17,229.4
2019-07-18 18:50,50.6304483333333,-96.9807866666667,8.6,12.8,209,972.76,22.8,65,23.62,0.0,998.08,229.4
2019-07-18 19:00,50.6304516666667,-96.9807766666667,8.8,12.1,215,972.60,23.2,61,23.64,0.0,997.90,270.0
2019-07-18 19:10,50.63045,-96.9807783333333,6.2,10.0,233,972.49,23.4,58,23.64,0.0,997.77,270.0
2019-07-18 19:20,50.63045,-96.9807766666667,5.6,8.7,217,972.34,23.5,59,23.61,0.0,997.59,270.0
2019-07-18 19:30,50.6304583333333,-96.9807833333333,5.5,9.5,237,972.30,23.9,57,23.34,0.0,997.52,270.0
2019-07-18 19:40,50.6304566666667,-96.9807816666667,6.8,10.3,221,972.26,23.7,58,23.20,0.0,997.48,270.0
2019-07-18 19:50,50.630455,-96.98078,4.6,7.3,239,972.15,23.8,55,23.53,0.0,997.34,270.0
2019-07-18 20:00,50.6304466666667,-96.98077,5.6,8.2,238,972.26,24.1,54,23.32,0.0,997.45,347.4
2019-07-18 20:10,50.6304533333333,-96.9807733333333,6.0,8.6,204,972.14,24.0,54,23.33,0.0,997.35,347.4
2019-07-18 20:20,50.6304266666667,-96.9807733333333,6.9,9.1,202,972.13,23.8,55,23.27,0.0,997.39,347.4
2019-07-18 20:30,50.6304483333333,-96.98077,5.5,8.4,203,972.16,24.0,55,23.37,0.0,997.40,347.4
2019-07-18 20:40,50.6304516666667,-96.9807666666667,6.5,11.2,203,972.34,24.3,52,23.22,0.0,997.56,347.4
2019-07-18 20:50,50.6304483333333,-96.9807666666667,6.1,7.9,191,972.27,24.4,53,23.36,0.0,997.47,347.4
2019-07-18 21:00,50.6304516666667,-96.98077,5.1,7.8,196,972.18,24.6,54,23.36,0.0,997.36,90.0
2019-07-18 21:10,50.6304516666667,-96.9807716666667,7.0,11.3,194,972.11,24.9,54,23.44,0.0,997.27,90.0
2019-07-18 21:20,50.6304566666667,-96.98081,11.4,14.7,185,972.07,24.5,58,23.30,0.0,997.24,90.0
2019-07-18 21:30,50.630445,-96.980775,12.8,17.4,182,972.15,24.2,61,23.43,0.0,997.33,90.0
2019-07-18 21:40,50.63045,-96.9807683333333,12.3,15.4,184,972.11,24.1,64,23.54,0.0,997.29,90.0
2019-07-18 21:50,50.6304366666667,-96.9807783333333,12.4,16.3,181,971.99,24.1,64,23.74,0.0,997.16,90.0
2019-07-18 22:00,50.6304483333333,-96.98077,12.1,16.6,183,971.86,24.3,64,24.01,0.0,997.02,167.4
2019-07-18 22:10,50.6304533333333,-96.9807666666667,11.9,15.5,181,971.67,24.4,60,24.02,0.0,996.83,167.4
2019-07-18 22:20,50.6304516666667,-96.980765,8.6,12.3,194,971.58,24.6,60,23.84,0.0,996.71,167.4
2019-07-18 22:30,50.6304583333333,-96.9807766666667,7.2,10.4,189,971.60,24.9,59,23.90,0.0,996.71,167.4
2019-07-18 22:40,50.6304566666667,-96.9807733333333,10.3,15.0,193,971.61,25.2,56,23.80,0.0,996.71,167.4
2019-07-18 22:50,50.6304566666667,-96.98077,7.8,10.8,196,971.63,25.2,57,23.78,0.0,996.72,167.4
2019-07-18 23:00,50.6304583333333,-96.98077,9.0,12.8,201,971.49,25.3,57,23.70,0.0,996.56,360.0
2019-07-18 23:10,50.6304466666667,-96.9807666666667,9.3,12.6,197,971.40,25.4,56,23.69,0.0,996.48,360.0
2019-07-18 23:20,50.63045,-96.9807683333333,9.2,12.9,190,971.32,25.2,58,23.76,0.0,996.41,360.0
2019-07-18 23:30,50.6304766666667,-96.9807733333333,11.5,14.5,190,971.11,25.1,58,23.81,0.0,996.22,360.0
2019-07-18 23:40,50.6304583333333,-96.9807633333333,9.2,12.7,191,971.13,24.7,59,24.04,0.0,996.25,360.0
